Home > Weather > Osorno > Past weeks

Flag for Chile Past Weather in Osorno, Chile — Yesterday and Last 2 Weeks

Now
46 °F

Passing clouds.


Feels Like: 41 °F
Forecast: N/A
Wind: 10 mph from South

Location: Puerto Montt Airport

Current Time: Jun 30, 2016 at 5:18:01 PM

Latest Report: Jun 30, 2016 at 5:00 PM


Visibility: N/A

Pressure: 30.21 "Hg

Humidity: 76%

Dew Point: 39 °F

Location of OsornoLocation

Past Weather in Osorno — Graph

°F

Osorno Temperature Yesterday

Maximum temperature yesterday: 54 °F (at 2:00 PM)
Minimum temperature yesterday: 37 °F (at 11:00 PM)
Average temperature yesterday: 45 °F

High & Low Weather Summary for the Past Weeks

 TemperatureHumidityPressure
High57 °F (Jun 17, 3:00 PM)100% (Jun 16, 12:00 AM)30.45 "Hg (Jun 16, 12:00 AM)
Low28 °F (Jun 30, 8:00 AM)59% (Jun 19, 4:00 PM)29.86 "Hg (Jun 29, 1:00 AM)
Average44 °F92%30.21 "Hg
* Reported Jun 15 4:00 PM — Jun 30 4:00 PM, Osorno, Weather by CustomWeather, © 2016

Note: Actual official high and low records may vary slightly from our data, if they occured in-between our weather recording intervals... More about our weather records

Advertising

Osorno Weather History for the Previous 24 Hours

Scroll right to see more
 ConditionsComfort  
Time TempWeatherWind HumidityBarometerVisibility
4:00 PM
Thu, Jun 30
48 °FSunny.14 mph71%30.21 "Hg10 mi
3:00 PM48 °FPassing clouds.14 mph76%30.24 "HgN/A
2:00 PM48 °FPassing clouds.10 mph76%30.24 "HgN/A
1:00 PM48 °FPassing clouds.10 mph76%30.27 "HgN/A
12:00 PM48 °FFog.13 mph76%30.27 "HgN/A
11:00 AM45 °FFog.6 mph87%30.27 "HgN/A
10:00 AM37 °FPassing clouds.3 mph100%30.27 "HgN/A
9:00 AM34 °FPassing clouds.2 mph93%30.27 "HgN/A
8:00 AM28 °FFog.1 mph100%30.27 "Hg1 mi
7:00 AM30 °FFog.1 mph93%30.27 "Hg2 mi
6:00 AM30 °FClear.2 mph100%30.27 "Hg10 mi
5:00 AM30 °FFog.No wind93%30.30 "Hg0 mi
4:00 AM30 °FFog.No wind100%30.30 "Hg1 mi
3:00 AM32 °FLight fog.No wind100%30.27 "Hg4 mi
2:00 AM32 °FLight fog.No wind100%30.30 "Hg2 mi
1:00 AM34 °FLight fog.No wind93%30.30 "Hg2 mi
12:00 AM34 °FFog.No wind100%30.30 "Hg2 mi
11:00 PM
Wed, Jun 29
37 °FFog.2 mph100%30.27 "Hg1 mi
10:00 PM39 °FFog.No wind93%30.27 "Hg1 mi
9:00 PM41 °FPassing clouds.1 mph93%30.24 "HgN/A
8:00 PM45 °FPassing clouds.2 mph93%30.24 "HgN/A
7:00 PM45 °FScattered showers. Passing clouds.3 mph93%30.21 "Hg4 mi
6:00 PM46 °FSprinkles. Passing clouds.3 mph93%30.21 "Hg4 mi
5:00 PM48 °FPassing clouds.No wind87%30.18 "HgN/A
Weather by CustomWeather, © 2016

See weather overviewHow to use our weather pages